When you browse on this site, cookies collect data to enhance your experience and personalize the content and advertising you see.
Visit our Privacy Policy to learn more. By continuing to use the site, you agree to this use of cookies and data.
  • In Sweden
  • List of Countries
  • For 7 days
  • Water Temperature
  • Weather Map
  • Weather Widgets
  • user-avatar
    Login

    Hourly Weather Balmazujvaros

    Today, 27 January, Monday

    Time Temperature Precipitation Wind Pressure Humidity
    00:00 -1°C° 0 mm 2 mps 757 mmHg 77%
    01:00 +1°C° 0 mm 2 mps 757 mmHg 76%
    02:00 +1°C° 0 mm 2 mps 757 mmHg 77%
    03:00 +2°C° 0 mm 1 mps 756 mmHg 77%
    04:00 +2°C° 0 mm 1 mps 756 mmHg 78%
    05:00 +2°C° 0 mm 1 mps 756 mmHg 78%
    06:00 +2°C° 0 mm 1 mps 755 mmHg 78%
    07:00 +2°C° 0 mm 1 mps 755 mmHg 79%
    08:00 +3°C° 0.1 mm 1 mps 755 mmHg 78%
    09:00 +3°C° 0.1 mm 1 mps 755 mmHg 78%
    10:00 +3°C° 0.1 mm 1 mps 755 mmHg 77%
    11:00 +3°C° 0.3 mm 1 mps 755 mmHg 80%
    12:00 +3°C° 0.3 mm 1 mps 755 mmHg 83%
    13:00 +3°C° 0.3 mm 1 mps 754 mmHg 86%
    14:00 +3°C° 0.2 mm 1 mps 754 mmHg 87%
    15:00 +2°C° 0.2 mm 0 mps 754 mmHg 88%
    16:00 +2°C° 0.2 mm 0 mps 754 mmHg 90%
    17:00 +2°C° 0 mm 0 mps 754 mmHg 90%
    18:00 +2°C° 0 mm 1 mps 754 mmHg 90%
    19:00 +2°C° 0 mm 1 mps 754 mmHg 91%
    20:00 +2°C° 0 mm 1 mps 754 mmHg 91%
    21:00 +2°C° 0 mm 1 mps 754 mmHg 91%
    22:00 +2°C° 0 mm 1 mps 754 mmHg 91%
    23:00 +2°C° 0 mm 1 mps 753 mmHg 91%

    Tomorrow, 28 January, Tuesday

    Time Temperature Precipitation Wind Pressure Humidity
    00:00 -1°C° 0 mm 2 mps 753 mmHg 91%
    01:00 -1°C° 0 mm 2 mps 753 mmHg 92%
    02:00 -1°C° 0 mm 2 mps 752 mmHg 92%
    03:00 -1°C° 0 mm 2 mps 752 mmHg 93%
    04:00 -1°C° 0 mm 2 mps 752 mmHg 93%
    05:00 -1°C° 0 mm 2 mps 751 mmHg 94%
    06:00 -1°C° 0 mm 2 mps 751 mmHg 94%
    07:00 -1°C° 0 mm 3 mps 751 mmHg 94%
    08:00 0°C° 0 mm 3 mps 751 mmHg 93%
    09:00 0°C° 0 mm 4 mps 750 mmHg 91%
    10:00 +1°C° 0 mm 5 mps 749 mmHg 89%
    11:00 +2°C° 0.3 mm 5 mps 748 mmHg 90%
    12:00 +2°C° 0.3 mm 6 mps 748 mmHg 90%
    13:00 +2°C° 0.3 mm 6 mps 747 mmHg 90%
    14:00 +3°C° 1.5 mm 6 mps 746 mmHg 92%
    15:00 +3°C° 1.5 mm 6 mps 745 mmHg 93%
    16:00 +3°C° 1.5 mm 7 mps 745 mmHg 94%
    17:00 +3°C° 1.1 mm 6 mps 744 mmHg 94%
    18:00 +3°C° 1.1 mm 6 mps 744 mmHg 93%
    19:00 +3°C° 1.1 mm 6 mps 743 mmHg 92%
    20:00 +3°C° 1.6 mm 5 mps 743 mmHg 93%
    21:00 +4°C° 1.6 mm 4 mps 742 mmHg 95%
    22:00 +4°C° 1.6 mm 4 mps 742 mmHg 96%
    23:00 +3°C° 0.5 mm 4 mps 742 mmHg 93%

    Day after tomorrow, 29 January, Wednesday

    Time Temperature Precipitation Wind Pressure Humidity
    00:00 +3°C° 0.5 mm 4 mps 742 mmHg 89%
    01:00 +2°C° 0.5 mm 5 mps 742 mmHg 86%
    02:00 +1°C° 0.1 mm 5 mps 743 mmHg 83%
    03:00 +1°C° 0.1 mm 6 mps 743 mmHg 80%
    04:00 +1°C° 0.1 mm 6 mps 744 mmHg 77%
    05:00 -1°C° 0 mm 6 mps 745 mmHg 76%
    06:00 -1°C° 0 mm 6 mps 745 mmHg 75%
    07:00 -1°C° 0 mm 5 mps 746 mmHg 74%
    08:00 -1°C° 0 mm 6 mps 747 mmHg 72%
    09:00 0°C° 0 mm 7 mps 747 mmHg 70%
    10:00 +1°C° 0 mm 8 mps 748 mmHg 69%
    11:00 +1°C° 0 mm 8 mps 748 mmHg 69%
    12:00 +2°C° 0 mm 8 mps 748 mmHg 69%
    13:00 +2°C° 0 mm 8 mps 748 mmHg 69%
    14:00 +2°C° 0 mm 7 mps 748 mmHg 74%
    15:00 +2°C° 0 mm 7 mps 748 mmHg 80%
    16:00 +1°C° 0 mm 6 mps 748 mmHg 86%
    17:00 +1°C° 0 mm 6 mps 748 mmHg 85%
    18:00 0°C° 0 mm 5 mps 748 mmHg 85%
    19:00 0°C° 0 mm 5 mps 749 mmHg 85%
    20:00 -1°C° 0 mm 6 mps 749 mmHg 82%
    21:00 -1°C° 0 mm 6 mps 749 mmHg 80%
    22:00 -1°C° 0 mm 7 mps 749 mmHg 78%
    23:00 -1°C° 0 mm 7 mps 750 mmHg 77%

    30 January, Thursday

    Time Temperature Precipitation Wind Pressure Humidity
    00:00 -1°C° 0 mm 7 mps 750 mmHg 76%
    01:00 -1°C° 0 mm 7 mps 750 mmHg 76%
    02:00 -1°C° 0 mm 6 mps 750 mmHg 76%
    03:00 -2°C° 0 mm 6 mps 751 mmHg 77%
    04:00 -1°C° 0 mm 5 mps 751 mmHg 78%
    05:00 -1°C° 0 mm 4 mps 752 mmHg 79%
    06:00 -1°C° 0 mm 4 mps 752 mmHg 80%
    07:00 0°C° 0 mm 3 mps 753 mmHg 81%
    08:00 +1°C° 0 mm 3 mps 753 mmHg 77%
    09:00 +2°C° 0 mm 3 mps 754 mmHg 74%
    10:00 +3°C° 0 mm 2 mps 754 mmHg 71%
    11:00 +3°C° 0 mm 3 mps 754 mmHg 67%
    12:00 +4°C° 0 mm 3 mps 755 mmHg 63%
    13:00 +5°C° 0 mm 3 mps 755 mmHg 59%
    14:00 +4°C° 0 mm 3 mps 755 mmHg 62%
    15:00 +5°C° 0 mm 2 mps 755 mmHg 66%
    16:00 +4°C° 0 mm 2 mps 756 mmHg 69%
    17:00 +2°C° 0 mm 3 mps 756 mmHg 72%
    18:00 +1°C° 0 mm 3 mps 756 mmHg 76%
    19:00 0°C° 0 mm 4 mps 756 mmHg 80%
    20:00 -1°C° 0 mm 4 mps 756 mmHg 80%
    21:00 -1°C° 0 mm 4 mps 756 mmHg 80%
    22:00 -1°C° 0 mm 4 mps 756 mmHg 80%
    23:00 -1°C° 0 mm 4 mps 756 mmHg 80%

    31 January, Friday

    Time Temperature Precipitation Wind Pressure Humidity
    00:00 -1°C° 0 mm 4 mps 756 mmHg 80%
    01:00 -1°C° 0 mm 5 mps 756 mmHg 79%
    02:00 -1°C° 0 mm 5 mps 756 mmHg 79%
    03:00 -1°C° 0 mm 5 mps 756 mmHg 79%
    04:00 -1°C° 0 mm 5 mps 756 mmHg 79%
    05:00 -1°C° 0 mm 5 mps 755 mmHg 79%
    06:00 -1°C° 0 mm 5 mps 755 mmHg 79%
    07:00 -2°C° 0 mm 5 mps 755 mmHg 79%
    08:00 -1°C° 0 mm 5 mps 755 mmHg 76%
    09:00 0°C° 0 mm 5 mps 755 mmHg 74%
    10:00 +1°C° 0 mm 6 mps 755 mmHg 72%
    11:00 +1°C° 0 mm 6 mps 754 mmHg 71%
    12:00 +2°C° 0 mm 6 mps 754 mmHg 71%
    13:00 +3°C° 0 mm 6 mps 753 mmHg 70%
    14:00 +3°C° 0.2 mm 6 mps 753 mmHg 74%
    15:00 +3°C° 0.2 mm 6 mps 753 mmHg 79%
    16:00 +2°C° 0.2 mm 6 mps 752 mmHg 83%
    17:00 +3°C° 0.1 mm 6 mps 752 mmHg 82%
    18:00 +3°C° 0.1 mm 6 mps 752 mmHg 80%
    19:00 +3°C° 0.1 mm 6 mps 752 mmHg 78%
    20:00 +3°C° 0.1 mm 6 mps 752 mmHg 78%
    21:00 +3°C° 0.1 mm 5 mps 752 mmHg 78%
    22:00 +4°C° 0.1 mm 4 mps 752 mmHg 78%
    23:00 +4°C° 0 mm 3 mps 752 mmHg 81%

    1 February, Saturday

    Time Temperature Precipitation Wind Pressure Humidity
    00:00 +3°C° 0 mm 3 mps 752 mmHg 84%
    01:00 +4°C° 0 mm 2 mps 752 mmHg 87%
    02:00 +5°C° 0 mm 1 mps 752 mmHg 88%
    03:00 +5°C° 0 mm 1 mps 753 mmHg 89%
    04:00 +5°C° 0 mm 1 mps 753 mmHg 90%
    05:00 +5°C° 0 mm 1 mps 753 mmHg 90%
    06:00 +5°C° 0 mm 1 mps 754 mmHg 90%
    07:00 +5°C° 0 mm 1 mps 754 mmHg 90%
    08:00 +5°C° 0 mm 1 mps 754 mmHg 88%
    09:00 +6°C° 0 mm 1 mps 755 mmHg 86%
    10:00 +7°C° 0 mm 1 mps 755 mmHg 84%
    11:00 +7°C° 0 mm 2 mps 755 mmHg 82%
    12:00 +8°C° 0 mm 2 mps 755 mmHg 79%
    13:00 +9°C° 0 mm 3 mps 755 mmHg 77%
    14:00 +8°C° 0 mm 2 mps 755 mmHg 80%
    15:00 +8°C° 0 mm 2 mps 755 mmHg 83%
    16:00 +8°C° 0 mm 2 mps 755 mmHg 85%
    17:00 +8°C° 0 mm 2 mps 755 mmHg 87%
    18:00 +7°C° 0 mm 2 mps 755 mmHg 89%
    19:00 +7°C° 0 mm 2 mps 755 mmHg 91%
    20:00 +7°C° 0 mm 2 mps 755 mmHg 91%
    21:00 +7°C° 0 mm 3 mps 755 mmHg 91%
    22:00 +7°C° 0 mm 3 mps 755 mmHg 91%
    23:00 +7°C° 0.1 mm 3 mps 755 mmHg 89%
    Show more